This is the latest recevied weather packets stored in our database for station/object N8QQQ. If no packets are shown the sender has not sent any weather packets the latest 10 day(s).
| Time | Temp. | Humidity | Pressure | Rain* | Wind** | Luminosity | Snow |
|---|---|---|---|---|---|---|---|
| 1777783889 | -0.56° C | 83% | 1009.4 hPa | 0 mm | - | 0 W/m² | - |
| 1777783586 | -0.56° C | 83% | 1009.7 hPa | 0 mm | - | 0 W/m² | - |
| 1777783283 | -0.56° C | 82% | 1009.3 hPa | 0 mm | - | 0 W/m² | - |
| 1777782980 | -1.11° C | 83% | 1009.5 hPa | 0 mm | - | 0 W/m² | - |
| 1777782677 | -1.11° C | 84% | 1009.7 hPa | 0 mm | - | 0 W/m² | - |
| 1777782373 | -1.11° C | 83% | 1009.7 hPa | 0 mm | - | 0 W/m² | - |
| 1777782069 | -1.11° C | 83% | 1009.7 hPa | 0 mm | - | 0 W/m² | - |
| 1777781766 | -0.56° C | 81% | 1009.4 hPa | 0 mm | - | 0 W/m² | - |
| 1777781464 | -0.56° C | 82% | 1009.8 hPa | 0 mm | - | 0 W/m² | - |
| 1777781161 | -1.11° C | 82% | 1010 hPa | 0 mm | - | 0 W/m² | - |
| 1777780858 | -0.56° C | 80% | 1010 hPa | 0 mm | - | 0 W/m² | - |
| 1777780554 | -0.56° C | 80% | 1010.2 hPa | 0 mm | - | 0 W/m² | - |
| 1777780253 | -0.56° C | 79% | 1010.2 hPa | 0 mm | - | 0 W/m² | - |
| 1777779949 | -0.56° C | 78% | 1010 hPa | 0 mm | - | 0 W/m² | - |
| 1777779647 | -1.11° C | 79% | 1010 hPa | 0 mm | - | 0 W/m² | - |
| 1777779343 | -1.11° C | 81% | 1010.2 hPa | 0 mm | - | 0 W/m² | - |
| 1777779042 | -1.11° C | 85% | 1010.4 hPa | 0 mm | - | 0 W/m² | - |
| 1777778740 | -1.11° C | 84% | 1010.7 hPa | 0 mm | - | 0 W/m² | - |
| 1777778437 | -1.11° C | 85% | 1010.4 hPa | 0 mm | - | 0 W/m² | - |
| 1777778135 | -1.11° C | 86% | 1010.6 hPa | 0 mm | - | 0 W/m² | - |
| 1777777832 | -1.11° C | 83% | 1010.7 hPa | 0 mm | - | 0 W/m² | - |
| 1777777528 | -1.11° C | 84% | 1010.7 hPa | 0 mm | - | 0 W/m² | - |
| 1777777225 | -1.11° C | 82% | 1010.9 hPa | 0 mm | - | 0 W/m² | - |
| 1777776921 | -1.11° C | 82% | 1010.9 hPa | 0 mm | - | 0 W/m² | - |
| 1777776620 | -0.56° C | 82% | 1010.7 hPa | 0 mm | - | 0 W/m² | - |
* Rain latest hour (hover to see other rain measurements)
** Current wind speed in m/s (hover to see current wind gust speed)